This demonstration page uses our WeatherBlox Daily Observations layout. Learn more.

Left ArrowRight Arrow

Hourly Observations for October 27, 2021

Temp ( °F °C ) Dew Point ( °F °C ) Humidity (%) Winds ( mph kmh ) Pressure ( in mb ) Visibility ( mi km ) Precip ( " mm )
12:53 am 00:53 Clear 50 10 43 6.1 77 77 N 3 6 29.91 1013 10 16 0.00 0.00
1:53 am 01:53 Clear 49 9.4 43 6.1 80 80 Calm 29.90 1013 10 16 0.00 0.00
2:53 am 02:53 Clear 48 8.9 44 6.7 86 86 WSW 3 6 29.91 1013 10 16 0.00 0.00
3:53 am 03:53 Clear 47 8.3 43 6.1 86 86 Calm 29.91 1013 10 16 0.00 0.00
4:53 am 04:53 Clear 47 8.3 43 6.1 86 86 Calm 29.91 1013 10 16 0.00 0.00
5:53 am 05:53 Clear 46 7.8 42 5.6 86 86 VRB 3 6 29.91 1013 10 16 0.00 0.00
6:53 am 06:53 Clear 45 7.2 41 5 86 86 ENE 5 7 29.91 1013 10 16 0.00 0.00
7:53 am 07:53 Clear 44 6.7 41 5 89 89 Calm 29.91 1013 10 16 0.00 0.00
8:53 am 08:53 Sunny 46 7.8 42 5.6 86 86 NW 3 6 29.93 1013 10 16 0.00 0.00
9:53 am 09:53 Sunny 51 10.6 44 6.7 77 77 NW 3 6 29.94 1014 10 16 0.00 0.00
10:53 am 10:53 Sunny 56 13.3 45 7.2 67 67 Calm 29.93 1014 10 16 0.00 0.00
11:53 am 11:53 Sunny 61 16.1 42 5.6 50 50 E 3 6 29.91 1013 10 16 0.00 0.00
12:53 pm 12:53 Sunny 65 18.3 42 5.6 43 43 Calm 29.90 1012 10 16 0.00 0.00
1:53 pm 13:53 Sunny 69 20.6 41 5 36 36 SSW 8 13 29.88 1012 10 16 0.00 0.00
2:53 pm 14:53 Sunny 71 21.7 37 2.8 29 29 S 3 6 29.84 1011 10 16 0.00 0.00
3:50 pm 15:50 Mostly Sunny 72 22 39 4 31 31 SE 6 9 29.80 1009 10 16 0.00 0.00
3:53 pm 15:53 Mostly Sunny 72 22.2 40 4.4 31 31 SE 5 7 29.82 1010 10 16 0.00 0.00
4:53 pm 16:53 Sunny 72 22.2 40 4.4 31 31 S 3 6 29.81 1010 10 16 0.00 0.00
5:53 pm 17:53 Sunny 72 22.2 34 1.1 25 25 E 3 6 29.80 1009 10 16 0.00 0.00
6:53 pm 18:53 Clear 65 18.3 44 6.7 47 47 Calm 29.81 1010 10 16 0.00 0.00
7:53 pm 19:53 Clear 65 18.3 46 7.8 51 51 ESE 6 9 29.80 1009 10 16 0.00 0.00
8:53 pm 20:53 Clear 63 17.2 47 8.3 56 56 SE 7 11 29.82 1010 10 16 0.00 0.00
9:53 pm 21:53 Clear 62 16.7 47 8.3 58 58 ESE 6 9 29.80 1009 10 16 0.00 0.00
10:53 pm 22:53 Clear 61 16.1 47 8.3 60 60 E 6 9 29.81 1010 10 16 0.00 0.00
11:53 pm 23:53 Clear 59 15 47 8.3 64 64 SE 5 7 29.82 1010 10 16 0.00 0.00

Powered by AerisWeather